User: anonymous   Login
Location: Bottens
(46.6171°N, 6.6605°E)
Time: 00:37:49
(UTC+00:00)
Language:

Cosmos 2098 Rocket - Orbit

View from above orbital plane
View from above orbital plane
View from above satellite
View from above satellite

Ground track
Ground track

The orbit data is extracted from the following two-line orbital elements,

1 20775U 90078B   21270.53370655  .00002787  00000-0  13304-3 0  9999
2 20775  82.9289 200.8828 0565104 185.5405 173.9369 14.36405907572740
Epoch (UTC): 27 September 2021 12:48:32
Eccentricity: 0.0565104
inclination: 82.9289°
perigee height: 366 km
apogee height: 1174 km
right ascension of ascending node: 200.8828°
argument of perigee: 185.5405°
revolutions per day: 14.36405907
mean anomaly at epoch: 173.9369°
orbit number at epoch: 57274

The dashed part of the orbit path shows where the satellite is in the earth's shadow,  

DLR